CAPE
1 3 1 1 1 1 1 2 3 2 2 0 0 0 0 0 0 0 0 0 0 0 0 0 0 0 0 0 0 0 0 0 0 0 0 0 0 0 0 0 0 0 0 0 175
0 1 2 1 2 1 1 0 3 2 2 0 0 0 0 0 0 0 0 0 0 0 0 0 0 0 0 0 0 0 0 0 0 0 0 0 0 0 0 0 0 0 0 0 0
5 3 3 2 1 2 0 0 1 1 1 0 0 0 0 1 0 0 0 0 0 0 0 0 0 0 0 0 0 0 0 0 0 0 0 0 0 0 0 0 0 0 0 0 0
1 4 5 5 2 1 0 0 0 2 1 0 0 1 0 0 0 0 0 0 0 0 0 0 0 0 0 0 0 0 0 0 0 0 0 0 0 0 0 0 0 0 0 0 0
1 0 1 1 1 2 1 0 0 1 1 0 1 0 0 0 0 0 0 0 0 0 0 0 0 0 0 0 0 0 0 0 0 0 0 0 0 0 0 0 0 0 0 0 0
2 1 1 1 1 1 2 1 0 1 0 0 1 1 0 0 0 0 0 0 0 0 0 0 0 0 0 0 0 0 0 0 0 0 0 0 0 0 0 0 0 0 0 0 0
2 2 1 1 0 0 0 0 0 1 0 0 1 0 0 0 0 0 0 0 0 0 0 0 0 0 0 0 0 0 0 0 0 0 0 0 0 0 0 0 0 0 0 0 0
2 1 0 0 0 3 3 1 0 0 0 0 0 0 0 0 0 0 0 0 0 0 0 0 0 0 0 0 0 0 0 0 0 0 0 0 0 0 0 0 0 0 0 0 0
2 1 2 1 1 2 1 0 0 0 0 0 0 0 0 0 0 0 0 0 0 0 0 0 0 0 0 0 0 0 0 0 0 0 0 0 0 0 0 0 0 0 0 0 0
3 2 1 2 1 1 0 0 0 0 0 0 0 0 0 0 0 0 0 0 0 0 0 0 0 0 0 0 0 0 0 0 0 0 0 0 0 0 0 0 0 0 0 0 0
1 2 2 1 1 0 0 0 0 0 0 0 0 0 0 0 0 0 0 0 0 0 0 0 0 0 0 0 0 0 0 0 0 0 0 0 0 0 0 0 0 0 0 0 0
2 1 2 1 0 0 0 0 0 0 0 0 0 0 0 0 0 0 0 0 0 0 0 0 0 0 0 0 0 0 0 0 0 0 0 0 0 0 0 0 0 0 0 0 0
3 1 0 1 0 0 0 0 0 0 0 0 0 0 0 0 0 0 0 0 0 0 0 0 0 0 0 0 0 0 0 0 0 0 0 0 0 0 0 0 0 0 0 0 0
4 1 0 0 0 0 0 0 0 0 0 0 0 0 0 0 0 0 0 0 0 0 0 0 0 0 0 0 0 0 0 0 0 0 0 0 0 0 0 0 0 0 0 0 0
2 1 0 0 0 0 0 0 0 0 0 0 0 0 0 0 0 0 0 0 0 0 0 0 0 0 0 0 0 0 0 0 0 0 0 0 0 0 0 0 0 0 0 0 0
0 0 0 0 0 0 0 0 0 0 0 0 0 0 0 0 0 0 0 0 0 0 0 0 0 0 0 0 0 0 0 0 0 0 0 0 0 0 0 0 0 0 0 0 0
0 0 0 0 0 0 0 0 0 0 0 0 0 0 0 0 0 0 0 0 0 0 0 0 0 0 0 0 0 0 0 0 0 0 0 0 0 0 0 0 0 0 0 0 0
0 0 0 0 0 0 0 0 0 0 0 0 0 0 0 0 0 0 0 0 0 0 0 0 0 0 0 0 0 0 0 0 0 0 0 0 0 0 0 0 0 0 0 0 0
0 0 0 0 0 0 0 0 0 0 0 0 0 0 0 0 0 0 0 0 0 0 0 0 0 0 0 0 0 0 0 0 0 0 0 0 0 0 0 0 0 0 0 0 0
0 0 0 0 0 0 0 0 0 0 0 0 0 0 0 0 0 0 0 0 0 0 0 0 0 0 0 0 0 0 0 0 0 0 0 0 0 0 0 0 0 0 0 0 0
0 0 0 0 0 0 0 0 0 0 0 0 0 0 0 0 0 0 0 0 0 0 0 0 0 0 0 0 0 0 0 0 0 0 0 0 0 0 0 0 0 0 0 0 0
0 0 0 0 0 0 0 0 0 0 0 0 0 0 0 0 0 0 0 0 0 0 0 0 0 0 0 0 0 0 0 0 0 0 0 0 0 0 0 0 0 0 0 0 0
0 0 0 0 0 0 0 0 0 0 0 0 0 0 0 0 0 0 0 0 0 0 0 0 0 0 0 0 0 0 0 0 0 0 0 0 0 0 0 0 0 0 0 0 0
0 0 0 0 0 0 0 0 0 0 0 0 0 0 0 0 0 0 0 0 0 0 0 6 0 0 0 0 0 0 0 0 3 1 0 0 0 0 0 0 0 0 0 0 0
0 0 0 0 0 0 0 0 0 0 0 0 0 0 0 0 0 0 0 0 0 0 0 0 0 0 0 0 0 0 0 0 0 0 3 0 0 0 0 0 0 0 0 0 0
0 0 0 0 0 0 0 0 0 0 0 0 0 0 0 0 0 1 0 0 0 0 0 0 0 0 0 0 0 0 0 0 0 0 0 0 0 0 0 0 0 0 0 0 0
0 0 0 0 0 0 0 0 0 0 0 0 0 0 0 0 0 0 0 0 0 0 2 8 0 0 0 0 0 0 0 0 0 0 0 0 0 0 0 0 0 0 0 0 0
CIN
-2 -2 -0 -0 -0 -2 -0 -0 -0 -0 -0 -0 -0 -0 -0 -0 -0 -0 -0 -0 -0 -0 -0 -0 -0 -0 -0 -0 -0 -0 -0 -0 -0 -0 -0 -0 -0 -0 -0 -0 -0 -0 -0 -0 -358
-1 -2 -1 -1 -0 -0 -0 -0 -0 -0 -0 -0 -0 -0 -0 -0 -0 -0 -0 -0 -0 -0 -0 -0 -0 -0 -0 -0 -0 -0 -0 -0 -0 -0 -0 -0 -0 -0 -0 -0 -0 -0 -0 -0 -0
-0 -0 -0 -0 -0 -0 -0 -0 -0 -0 -0 -0 -0 -0 -0 -0 -0 -0 -0 -0 -0 -0 -0 -0 -0 -0 -0 -0 -0 -0 -0 -0 -0 -0 -0 -0 -0 -0 -0 -0 -0 -0 -0 -0 -0
-2 -0 -0 -0 -0 -0 -0 -0 -0 -0 -0 -0 -0 -0 -0 -0 -0 -0 -0 -0 -0 -0 -0 -0 -0 -0 -0 -0 -0 -0 -0 -0 -0 -0 -0 -0 -0 -0 -0 -0 -0 -0 -0 -0 -0
-0 -0 -2 -0 -1 -0 -0 -0 -0 -0 -0 -0 -0 -0 -0 -0 -0 -0 -0 -0 -0 -0 -0 -0 -0 -0 -0 -0 -0 -0 -0 -0 -0 -0 -0 -0 -0 -0 -0 -0 -0 -0 -0 -0 -0
-0 -0 -0 -0 -0 -1 -0 -0 -0 -0 -0 -0 -0 -0 -0 -0 -0 -0 -0 -0 -0 -0 -0 -0 -0 -0 -0 -0 -0 -0 -0 -0 -0 -0 -0 -0 -0 -0 -0 -0 -0 -0 -0 -0 -0
-0 -0 -0 -0 -0 -0 -0 -0 -0 -0 -0 -0 -0 -0 -0 -0 -0 -0 -0 -0 -0 -0 -0 -0 -0 -0 -0 -0 -0 -0 -0 -0 -0 -0 -0 -0 -0 -0 -0 -0 -0 -0 -0 -0 -0
-1 -0 -0 -0 -0 -0 -0 -0 -0 -0 -0 -0 -0 -0 -0 -0 -0 -0 -0 -0 -0 -0 -0 -0 -0 -0 -0 -0 -0 -0 -0 -0 -0 -0 -0 -0 -0 -0 -0 -0 -0 -0 -0 -0 -0
-0 -0 -0 -0 -0 -0 -0 -0 -0 -0 -0 -0 -0 -0 -0 -0 -0 -0 -0 -0 -0 -0 -0 -0 -0 -0 -0 -0 -0 -0 -0 -0 -0 -0 -0 -0 -0 -0 -0 -0 -0 -0 -0 -0 -0
-0 -0 -0 -0 -0 -0 -0 -0 -0 -0 -0 -0 -0 -0 -0 -0 -0 -0 -0 -0 -0 -0 -0 -0 -0 -0 -0 -0 -0 -0 -0 -0 -0 -0 -0 -0 -0 -0 -0 -0 -0 -0 -0 -0 -0
-0 -0 -0 -0 -0 -0 -0 -0 -0 -0 -0 -0 -0 -0 -0 -0 -0 -0 -0 -0 -0 -0 -0 -0 -0 -0 -0 -0 -0 -0 -0 -0 -0 -0 -0 -0 -0 -0 -0 -0 -0 -0 -0 -0 -0
-0 -0 -0 -0 -0 -0 -0 -0 -0 -0 -0 -0 -0 -0 -0 -0 -0 -0 -0 -0 -0 -0 -0 -0 -0 -0 -0 -0 -0 -0 -0 -0 -0 -0 -0 -0 -0 -0 -0 -0 -0 -0 -0 -0 -0
-0 -0 -0 -0 -0 -0 -0 -0 -0 -0 -0 -0 -0 -0 -0 -0 -0 -0 -0 -0 -0 -0 -0 -0 -0 -0 -0 -0 -0 -0 -0 -0 -0 -0 -0 -0 -0 -0 -0 -0 -0 -0 -0 -0 -0
-0 -0 -0 -0 -0 -0 -0 -0 -0 -0 -0 -0 -0 -0 -0 -0 -0 -0 -0 -0 -0 -0 -0 -0 -0 -0 -0 -0 -0 -0 -0 -0 -0 -0 -0 -0 -0 -0 -0 -0 -0 -0 -0 -0 -0
-0 -0 -0 -0 -0 -0 -0 -0 -0 -0 -0 -0 -0 -0 -0 -0 -0 -0 -0 -0 -0 -0 -0 -0 -0 -0 -0 -0 -0 -0 -0 -0 -0 -0 -0 -0 -0 -0 -0 -0 -0 -0 -0 -0 -0
-0 -0 -0 -0 -0 -0 -0 -0 -0 -0 -0 -0 -0 -0 -0 -0 -0 -0 -0 -0 -0 -0 -0 -0 -0 -0 -0 -0 -0 -0 -0 -0 -0 -0 -0 -0 -0 -0 -0 -0 -0 -0 -0 -0 -0
-0 -0 -0 -0 -0 -0 -0 -0 -0 -0 -0 -0 -0 -0 -0 -0 -0 -0 -0 -0 -0 -0 -0 -0 -0 -0 -0 -0 -0 -0 -0 -0 -0 -0 -0 -0 -0 -0 -0 -0 -0 -0 -0 -0 -0
-0 -0 -0 -0 -0 -0 -0 -0 -0 -0 -0 -0 -0 -0 -0 -0 -0 -0 -0 -0 -0 -0 -0 -0 -0 -0 -0 -0 -0 -0 -0 -0 -0 -0 -0 -0 -0 -0 -0 -0 -0 -0 -0 -0 -0
-0 -0 -0 -0 -0 -0 -0 -0 -0 -0 -0 -0 -0 -0 -0 -0 -0 -0 -0 -0 -0 -0 -0 -0 -0 -0 -0 -0 -0 -0 -0 -0 -0 -0 -0 -0 -0 -0 -0 -0 -0 -0 -0 -0 -0
-0 -0 -0 -0 -0 -0 -0 -0 -0 -0 -0 -0 -0 -0 -0 -0 -0 -0 -0 -0 -0 -0 -0 -0 -0 -0 -0 -0 -0 -0 -0 -0 -0 -0 -0 -0 -0 -0 -0 -0 -0 -0 -0 -0 -0
-0 -0 -0 -0 -0 -0 -0 -0 -0 -0 -0 -0 -0 -0 -0 -0 -0 -0 -0 -0 -0 -0 -0 -0 -0 -0 -0 -0 -0 -0 -0 -0 -0 -0 -0 -0 -0 -0 -0 -0 -0 -0 -0 -0 -0
-0 -0 -0 -0 -0 -0 -0 -0 -0 -0 -0 -0 -0 -0 -0 -0 -0 -0 -0 -0 -0 -0 -0 -0 -0 -0 -0 -0 -0 -0 -0 -0 -0 -0 -0 -0 -0 -0 -0 -0 -0 -0 -0 -0 -0
-0 -0 -0 -0 -0 -0 -0 -0 -0 -0 -0 -0 -0 -0 -0 -0 -0 -0 -0 -0 -0 -0 -0 -8 -0 -0 -0 -0 -0 -0 -0 -0 -0 -0 -0 -0 -0 -0 -0 -0 -0 -0 -0 -0 -0
-0 -0 -0 -0 -0 -0 -0 -0 -0 -0 -0 -0 -0 -0 -0 -0 -0 -1 -0 -0 -0 -0 -0 -12 -0 -0 -0 -0 -0 -0 -0 -0 -1 -0 -0 -1 -0 -0 -0 -0 -0 -0 -0 -0 -0
-0 -0 -0 -0 -0 -0 -0 -0 -0 -0 -0 -0 -0 -0 -0 -0 -0 -0 -0 -0 -0 -0 -0 -0 -0 -0 -0 -0 -0 -0 -0 -0 -0 -0 -0 -0 -0 -0 -0 -0 -0 -0 -0 -0 -0
-0 -0 -0 -0 -0 -0 -0 -0 -0 -0 -0 -0 -0 -0 -0 -0 -0 -2 -0 -0 -0 -0 -0 -10 -0 -0 -0 -0 -0 -0 -0 -0 -0 -0 -0 -0 -0 -0 -0 -0 -0 -0 -0 -0 -0
-0 -0 -0 -0 -0 -0 -0 -0 -0 -0 -0 -0 -0 -0 -0 -0 -0 -0 -0 -0 -0 -0 -5 -6 -2 -1 -0 -0 -0 -0 -0 -0 -0 -0 -5 -3 -0 -0 -0 -0 -0 -0 -0 -0 -0
Wind_Speed
32 31 31 30 30 29 29 28 28 28 28 28 29 29 30 32 33 25 24 19 19 18 20 26 26 26 25 27 25 23 38 49 42 33 31 31 35 28 27 28 25 20 22 25 20
33 32 31 31 30 29 29 29 28 28 28 28 28 29 29 30 26 22 17 14 16 19 22 21 23 23 27 29 28 31 37 39 30 31 36 38 37 36 33 35 26 27 27 24 21
32 32 32 31 30 30 30 29 29 29 28 28 28 28 28 26 20 18 13 12 13 15 17 17 18 20 27 27 28 31 42 33 30 32 38 41 41 35 37 42 26 30 30 30 28
34 31 30 30 29 29 29 30 29 29 29 28 28 28 27 19 17 16 12 11 13 15 17 16 16 18 24 29 27 34 30 30 32 34 37 43 45 46 44 46 33 32 35 33 30
35 33 30 29 29 30 30 30 29 29 28 27 27 26 21 19 17 17 12 12 14 16 18 17 16 17 22 24 26 29 28 28 30 30 34 37 45 53 54 44 37 32 32 32 32
35 32 32 29 28 28 29 29 29 28 27 26 25 23 18 19 15 16 12 13 16 17 17 16 18 17 19 22 25 24 28 31 31 32 32 34 43 46 48 37 40 38 38 35 34
31 32 31 31 29 28 27 27 26 26 23 21 21 17 18 14 15 18 13 17 17 16 18 17 18 18 18 22 21 25 31 32 33 32 34 31 43 47 43 40 43 36 34 35 35
13 26 27 28 29 29 27 24 24 19 7 14 14 14 17 14 18 20 14 19 19 18 19 21 17 18 19 19 21 23 23 27 24 24 23 24 37 30 26 32 38 36 33 30 31
11 17 22 24 23 28 26 24 22 12 11 13 14 14 15 20 14 17 13 18 18 17 18 18 17 19 19 22 23 22 27 27 27 24 25 25 31 28 31 31 36 34 35 34 33
10 10 18 20 17 24 25 20 17 16 16 15 15 16 14 14 15 17 13 16 18 19 17 17 18 20 21 22 27 29 28 28 30 29 31 35 37 34 35 35 36 35 35 37 35
10 8 8 8 8 14 20 17 20 19 19 15 15 14 18 19 15 14 16 14 17 18 19 19 19 21 21 20 22 24 25 28 29 28 36 41 46 43 38 37 39 37 37 37 38
11 8 5 4 4 6 19 19 21 19 22 17 13 9 10 14 16 18 15 16 16 20 19 19 20 16 20 20 21 22 25 28 29 31 36 41 51 49 43 38 33 38 41 41 39
12 8 3 1 5 16 18 19 22 17 17 19 17 16 13 8 15 17 10 13 17 19 18 17 16 16 18 21 23 25 27 30 33 34 34 39 46 32 31 34 39 40 40 40 38
11 9 8 7 18 16 17 12 13 15 19 19 18 17 15 13 17 13 9 12 16 18 17 18 18 20 23 23 20 26 23 28 32 35 37 31 47 38 30 32 36 42 40 40 41
10 9 13 16 18 18 15 6 14 16 15 16 17 15 16 15 20 18 13 14 17 17 17 20 21 22 21 21 19 24 23 28 31 34 34 34 38 35 39 33 32 36 40 39 38
9 14 17 19 18 16 12 13 17 18 16 16 17 20 20 19 20 19 18 16 17 19 21 26 22 22 19 18 20 22 27 30 28 31 36 30 33 43 36 32 44 40 36 36 36
6 22 20 18 19 16 16 17 19 18 17 17 16 19 17 20 22 24 23 20 22 24 26 21 17 18 18 21 21 22 29 35 35 35 37 27 40 46 46 48 40 38 36 34 35
5 22 19 17 15 18 19 19 19 18 16 15 17 16 12 22 20 25 23 22 20 19 21 23 25 19 18 21 23 26 24 30 38 39 42 38 42 43 38 38 35 33 35 39 39
17 20 20 20 18 19 18 20 18 18 16 15 18 17 15 17 19 22 21 22 20 19 22 23 25 21 22 19 20 24 25 24 33 34 43 38 39 46 44 39 36 36 35 38 40
19 18 20 21 19 20 19 18 17 18 19 15 17 16 17 17 15 19 16 16 19 20 21 22 30 23 22 19 21 23 19 26 25 37 42 42 47 47 44 43 36 35 37 41 44
20 19 19 22 19 20 18 17 17 18 18 15 14 14 16 17 15 14 15 14 15 20 21 21 24 23 19 18 24 22 24 22 23 26 39 48 47 32 35 35 33 35 37 42 43
21 20 20 21 20 20 18 18 17 17 19 16 16 15 15 16 17 15 13 15 16 17 21 20 21 25 25 21 22 18 18 16 26 31 29 34 35 28 30 34 33 39 43 43 42
25 19 19 20 20 20 19 18 16 19 19 18 17 17 18 18 18 14 15 14 17 19 19 16 19 25 25 18 16 17 15 16 22 25 20 26 19 28 35 42 45 49 44 43 42
26 24 22 22 20 20 21 19 18 19 18 19 17 18 19 19 16 20 19 18 22 20 23 17 18 19 21 23 24 32 18 16 16 21 24 19 28 19 18 47 45 42 42 44 44
28 24 23 21 21 21 18 18 20 21 20 20 19 21 21 20 20 20 21 23 28 28 23 11 20 17 30 36 35 24 9 11 11 15 18 21 23 41 41 35 40 41 43 45 47
27 27 24 21 20 21 19 21 21 21 22 22 20 24 23 20 19 20 27 23 20 18 17 15 19 22 32 31 28 31 18 15 12 11 13 14 16 23 32 42 44 44 47 48 48
25 22 24 22 22 22 21 22 21 25 20 18 24 26 24 20 21 18 9 7 6 16 17 16 21 26 28 27 33 33 20 18 18 16 15 18 26 46 37 35 43 43 45 48 45
Wind_Direction
338 332 326 322 317 314 311 309 307 306 305 304 303 301 302 304 300 313 302 306 307 300 298 286 281 274 274 269 269 272 260 253 258 266 267 264 260 269 271 267 279 284 290 296 311
333 328 324 320 317 314 312 308 305 303 303 302 303 303 303 305 309 311 317 322 311 305 298 292 280 275 266 265 265 260 261 261 272 270 268 266 259 264 267 264 271 279 285 297 306
327 322 319 313 310 309 307 305 304 302 301 301 301 304 305 309 317 321 341 343 337 329 312 302 293 281 265 265 263 264 257 265 267 266 263 263 260 261 262 255 271 278 282 289 291
328 316 309 306 301 297 297 299 299 298 298 301 303 306 305 324 315 325 347 354 345 336 316 310 301 283 270 260 267 261 271 272 271 270 264 256 264 259 256 253 271 279 279 281 283
324 316 308 303 300 299 294 293 292 294 297 300 305 310 322 316 311 316 338 345 340 327 314 307 308 293 275 273 272 267 272 277 277 278 273 270 258 254 254 262 268 273 280 280 279
320 312 308 302 297 293 292 292 293 292 299 304 310 316 324 311 318 319 334 330 324 318 313 310 299 301 290 280 276 278 275 275 275 275 276 274 263 255 252 267 265 271 273 276 275
307 308 305 303 297 294 289 285 280 288 315 323 324 337 322 322 316 311 323 311 314 316 310 308 305 296 298 287 288 283 275 278 277 277 274 274 265 259 263 269 262 271 273 272 273
302 298 299 298 297 297 291 279 271 237 60 3 3 351 323 333 308 299 321 312 308 307 304 299 307 299 295 298 295 286 284 274 281 285 286 274 267 279 282 272 266 267 272 275 276
310 293 293 292 289 298 293 280 274 17 36 25 11 360 338 307 319 312 318 314 317 314 308 305 305 296 296 292 286 287 274 278 278 291 287 279 271 281 288 283 274 271 268 273 276
324 302 289 288 281 293 297 300 8 17 16 13 2 347 345 337 328 315 332 321 317 312 310 310 303 291 291 289 277 278 280 281 279 285 289 280 276 282 283 283 279 277 275 272 276
342 315 294 277 268 275 346 351 345 345 349 350 347 349 327 323 337 338 329 331 326 323 307 305 298 291 291 294 292 290 289 286 288 292 289 281 276 279 284 283 279 279 277 275 275
345 331 301 266 231 124 54 16 359 360 339 357 0 349 349 340 329 319 333 318 322 312 315 306 296 299 302 301 297 295 293 291 293 295 294 287 275 278 282 283 282 280 279 277 276
3 10 13 198 190 85 71 49 11 26 4 356 6 3 352 17 341 332 336 326 318 313 318 312 311 312 307 303 299 298 294 294 292 298 299 294 283 287 288 286 284 284 282 279 276
6 29 55 91 77 79 72 76 63 58 9 8 3 4 11 354 333 348 347 330 321 315 320 311 315 314 303 301 306 298 306 303 299 300 291 307 278 289 295 293 289 286 285 280 279
6 38 62 74 67 61 62 81 68 54 39 29 23 30 12 350 332 328 335 315 306 310 315 307 312 312 308 307 312 305 313 305 302 300 297 297 287 285 298 299 303 295 293 287 284
15 50 62 65 66 60 57 64 59 40 42 28 23 7 353 341 331 332 326 318 317 304 301 299 309 310 307 314 314 316 310 307 308 303 292 297 293 285 296 301 301 300 298 291 289
347 45 61 66 50 49 52 52 40 41 33 27 19 11 6 344 325 321 319 309 296 292 292 306 311 315 314 307 313 315 312 300 296 296 293 302 295 287 295 296 297 298 299 298 295
323 46 55 57 53 43 45 44 37 32 31 29 20 10 14 348 340 321 313 306 314 303 296 293 296 307 315 309 308 311 311 302 295 295 295 303 295 296 307 306 304 299 299 299 294
44 43 42 41 45 39 43 34 36 30 26 23 16 16 17 9 353 339 329 309 304 308 298 298 297 309 309 313 315 312 309 314 304 305 299 301 303 302 303 303 298 296 299 301 301
36 39 40 32 37 36 37 34 34 30 23 25 17 21 13 7 4 350 348 341 310 308 311 304 296 307 308 312 314 312 320 313 315 305 302 305 305 302 304 302 302 298 302 303 303
33 35 37 24 37 33 34 31 26 20 19 20 17 12 8 6 7 3 351 346 341 318 313 309 303 308 315 311 310 312 311 316 317 314 309 309 309 322 311 303 300 301 306 308 304
28 28 30 30 31 32 28 23 20 19 18 17 13 8 4 4 356 353 349 341 342 333 317 316 308 299 306 316 314 317 317 319 313 315 317 317 314 331 314 301 298 295 304 305 306
16 26 32 32 25 22 19 17 17 12 11 13 8 8 3 355 351 355 352 351 339 331 325 323 313 305 312 328 332 328 334 329 325 321 303 313 310 337 308 291 287 289 296 301 303
12 13 21 26 27 20 14 14 13 10 8 6 1 360 355 350 346 339 340 340 326 326 317 317 308 305 303 310 316 300 322 318 316 321 318 299 273 289 296 290 292 296 297 301 303
9 13 17 15 16 13 15 9 4 4 5 1 360 357 352 348 345 335 333 332 319 311 310 308 302 313 292 277 290 303 265 312 308 306 307 289 311 276 292 280 299 298 301 306 300
9 8 10 12 15 13 15 9 4 3 0 354 353 350 346 340 334 325 324 329 330 333 323 309 309 311 288 291 304 309 325 325 324 312 305 310 300 324 322 307 299 301 301 300 289
15 18 12 13 13 12 12 9 4 359 2 359 351 345 339 337 339 332 313 294 292 317 314 314 306 302 299 312 306 306 333 342 342 345 334 323 331 325 326 321 309 303 299 290 280